OBJECT K, 57175

Orbit data source: Space-Track

You're viewing an Uncataloged Satellite

Recently launched and/or uncataloged satellites may have evolving metadata. Metadata may include but not limited to: Owner, Maufacturer, Bus, Motor, and Mission.

OBJECT K, 57175 is a satellite in SSO that was launched on Tue, 27 Jun 2023 UTC via a SOYUZ-2-1B launch vehicle from the Vostochny Cosmodrome (VOSTO). Unknown objects in Earth's orbit typically refer to objects detected orbiting the Earth but have not yet been identified or cataloged. These objects could be anything from previously untracked satellites, spent rocket stages, debris from satellite collisions, or even natural meteoroids temporarily captured by Earth's gravity.

Loading next visibility...
Identifier
57175, 2023-091K
Orbit
SSO
Country
Flag of TBDTBD
Related business
Flag of BYBelarusian State University (BY)
Manufacturer
Belarus SU
Mission
Operational Amateur Communications
Bus & Motor
CUBESAT 3U, Unknown motor
Mass
4 kg wet, 4 kg dry
Launch date (UTC)
2023-06-27 (3 years ago)
Launch vehicle
SOYUZ-2-1B
Launch site
Vostochny Cosmodrome (VOSTO)
Object type
Unknown
Shape & HBR
Box, 0.2 m
Radar Cross Section
0.035 m², Medium (>0.1 m² and < 1m²)

Expand to show TLE details & history
Last TLE update: 20 hours ago

TLE from 20 hours ago
0 OBJECT K
1 57175U 23091K   26207.63058440  .00013249  00000-0  45726-3 0  9993
2 57175  97.5033 271.2195 0008341 344.7637  15.3351 15.30061899170335
Epoch: 2026-07-26T15:08Z
TLE epoch observation values (Epoch: 2026-07-26T15:08:02.492Z)
Latitude
0.00001°
Longitude
99.88336°
Altitude
473.215 km
Speed
7.632 km/s
True Right ascension
18h 04m 52s
True Declination
0° 00' 00"
Sunlit
Object was in full shadow at epoch
Visualization orbit readout
Latitude
Unknown
Longitude
Unknown
Altitude
Unknown
Speed
Unknown
Apparent Right ascension
Unknown
Apparent Declination
Unknown
Sunlit
N/A
Visualization observer readout
Local Sidereal Time
00:27:23
Azimuth
Unknown
Elevation
Unknown
Doppler factor
Unknown
Orbital elements
Apogee altitude
478.298 km
Perigee altitude
466.87 km
Semi-major axis
6,850.721 km
Eccentricity
0.00083
Inclination
97.5033°
RAAN
271.2195°
Arg. of periapsis
344.7637°
True anomaly
15.3604°
Mean anomaly
15.3351°
Eccentric anomaly
15.34775°
Mean motion
3.82771 °/min
Orbital period
94.05 mins
BSTAR
0.00045726
Loading maneuver chart data...
Computing Atmospheric mass density...
Loading historical data...
Loading historical data...
Loading historical data...
Loading historical data...
Loading historical data...
Loading historical data...
Loading historical data...

Documentation

Showing up to 5 results
|